Terminal Aerodrome Forecast
Issued by NWS North Platte, NE

Home | Current Version | Previous Version | Text Only | Print | Product List | Glossary Off
Versions: 1 2 3 4 5 6 7 8 9 10 11 12 13 14 15

000
FTUS43 KLBF 212300
TAFVTN
TAF
KVTN 212320Z 2200/2224 22009KT P6SM BKN110
     FM221200 30014G25KT 5SM -SN BKN030 OVC100
     FM221500 32018G28KT 3SM -SN OVC020=

USA.gov is the U.S. government's official web portal to all federal, state and local government web resources and services.